User: anonymous   Login
Location: Poughquag
(41.6090°N, 73.6820°W)
Time: 09:46:14
(UTC-04:00)
Language:

nSIGHT-1 - Orbit

View from above orbital plane
View from above orbital plane
View from above satellite
View from above satellite

Ground track
Ground track

The orbit data is extracted from the following two-line orbital elements,

1 42726U 98067MF  20092.88154083  .00231226  33811-4  41942-3 0  9990
2 42726  51.6252 254.7983 0006677 279.6093  80.4162 16.00989701163398
Epoch (UTC): 01 April 2020 21:09:25
Eccentricity: 0.0006677
inclination: 51.6252°
perigee height: 267 km
apogee height: 276 km
right ascension of ascending node: 254.7983°
argument of perigee: 279.6093°
revolutions per day: 16.00989701
mean anomaly at epoch: 80.4162°
orbit number at epoch: 16339

The dashed part of the orbit path shows where the satellite is in the earth's shadow,  

DLR